User: anonymous   Login
Location: Unspecified
(0.0000°N, 0.0000°E)
Time: 07:47:52
(UTC+00:00)
Language:

STARLINK-31420 - Orbit

View from above orbital plane
View from above orbital plane
View from above satellite
View from above satellite

Ground track
Ground track

The orbit is defined by the following mean orbital elements,

1 59223U          26145.41747631 +.00000000 +00000-0 -49666-4 0 00001
2 59223  53.1593 159.1708 0001281  91.6052 268.5095 15.30179739    05
Epoch (UTC): 25 May 2026 10:01:09
Eccentricity: 0.0001281
inclination: 53.1593°
perigee height: 474 km
apogee height: 476 km
right ascension of ascending node: 159.1708°
argument of perigee: 91.6052°
revolutions per day: 15.30179739
mean anomaly at epoch: 268.5095°

The dashed part of the orbit path shows where the satellite is in the earth's shadow,  

DLR